Location: Newark
(54.2500°N, 9.1833°E)
Time: 01:30:34
(UTC+00:00)

Vanguard 2 Rocket - Pass Details

Date: 12 December 2019
Orbit: 554 x 3326 km, 32.9° (Epoch: 23 January)

Event Time Altitude Azimuth Distance (km) Brightness Sun altitude
Rises 16:02:03 0° 214° (SW) 6,915 12.6 -8.4°
Reaches altitude 10° 16:09:09 10° 200° (SSW) 5,456 11.6 -9.3°
Maximum altitude 16:17:53 18° 165° (SSE) 4,080 10.3 -10.4°
Drops below altitude 10° 16:24:34 10° 128° (SE) 4,017 9.9 -11.3°
Enters shadow 16:28:32 - 110° (ESE) 4,537 10.0 -11.9°
